Wind_Speed
19 18 15 13 11 9 7 4 3 1 2 5 7 8 11 11 12 14 15 15 15 15 15 16 16 16 16 16 16 16 16 16 15 14 12 12 11 9 6 5 5 3 1 1
20 18 17 15 13 11 9 8 6 4 4 6 6 7 8 10 12 13 14 13 14 13 13 14 14 15 15 15 15 15 15 15 14 14 13 12 11 10 8 7 5 4 2 1
20 18 19 18 15 13 12 11 9 8 8 8 8 7 8 9 10 11 13 12 12 12 11 12 13 14 14 14 14 14 15 16 15 14 14 12 11 10 8 8 6 5 3 2
22 21 21 19 17 16 15 13 12 12 12 11 9 9 9 11 10 11 11 11 11 11 10 10 11 12 13 13 14 14 14 15 15 14 14 13 11 9 8 7 7 6 4 3
24 23 23 21 19 17 16 16 16 15 15 14 13 13 11 11 11 10 10 10 10 11 9 9 10 11 12 12 13 13 14 14 14 14 14 13 11 10 9 8 7 7 6 4
25 25 25 23 20 19 18 18 18 18 17 16 13 14 12 11 10 10 10 10 9 10 8 8 9 10 11 11 12 12 13 14 14 14 14 13 12 11 10 9 8 7 6 5
27 26 26 24 21 20 20 20 20 20 18 15 14 15 13 11 10 10 11 10 9 8 8 9 9 9 10 10 11 11 12 13 13 13 13 13 13 11 10 9 9 8 7 7
28 27 26 25 23 21 21 22 22 20 18 16 15 15 13 11 11 11 12 12 10 9 9 9 9 8 9 9 10 10 11 12 13 13 13 13 13 11 10 9 9 9 9 9
29 27 25 26 24 23 22 22 22 21 20 19 17 16 13 11 11 12 12 13 12 11 10 10 9 8 8 9 9 10 10 11 12 12 12 12 13 12 10 10 10 10 10 10
29 29 27 26 27 25 24 22 23 23 22 21 19 16 14 13 12 12 12 14 14 14 12 10 9 9 8 8 8 9 9 10 11 11 12 12 12 12 11 10 10 10 10 10
31 30 28 28 29 27 25 24 25 25 25 24 22 18 14 14 13 13 13 15 16 14 11 10 11 10 8 8 8 9 10 10 10 11 12 12 12 12 12 12 11 11 11 12
31 31 30 31 31 30 28 27 27 27 26 26 25 22 17 16 14 14 15 15 16 16 14 13 13 12 11 9 9 9 9 10 10 11 12 12 12 12 12 13 13 13 14 14
33 34 33 32 33 32 31 29 29 28 28 28 28 26 21 20 19 18 17 17 18 17 16 15 15 14 13 12 10 10 11 11 11 12 13 13 13 13 14 14 14 14 15 15
35 37 37 35 34 33 33 32 30 30 31 30 30 27 24 22 21 20 19 19 20 19 18 16 16 17 18 15 12 11 12 12 13 14 14 15 15 15 16 16 16 15 15 16
37 39 39 38 36 35 35 34 32 32 32 32 30 29 27 26 24 23 24 22 22 21 20 19 19 19 19 18 15 14 13 14 14 15 16 17 17 18 18 18 17 16 16 17
39 41 42 41 40 39 38 37 36 35 33 34 33 32 29 29 29 28 26 25 25 24 23 24 24 22 22 20 19 17 16 17 17 17 18 18 19 20 20 20 20 18 18 18
42 42 43 44 42 42 42 39 37 37 36 35 35 33 31 32 32 32 31 29 27 27 27 27 26 25 24 24 24 21 19 20 20 20 20 20 22 23 23 21 21 22 21 21
43 43 44 45 44 45 42 39 39 39 38 37 36 35 35 34 34 33 32 31 30 30 30 30 29 29 28 26 25 24 24 24 23 23 24 23 24 25 23 24 24 24 25 24
43 44 44 45 46 46 43 41 40 40 39 38 37 37 37 35 36 36 35 34 33 33 33 32 32 31 30 28 27 27 26 26 26 26 26 26 26 27 27 27 27 27 26 26
42 43 44 44 45 46 43 42 43 41 41 40 40 39 38 38 38 39 37 37 36 36 37 36 35 34 32 30 30 29 28 28 28 28 29 28 28 29 29 29 29 29 28 28
41 42 43 45 46 46 44 42 43 44 43 41 41 41 40 40 40 40 39 39 39 39 38 38 37 36 35 34 34 32 31 30 30 30 31 31 30 30 31 31 31 31 30 30
41 42 44 45 47 47 45 44 44 44 44 44 43 43 42 42 42 42 42 41 41 41 40 40 39 38 37 36 35 34 32 32 32 33 33 33 32 32 33 32 33 32 32 32
39 41 43 45 46 46 46 46 45 45 45 45 45 45 45 44 44 44 44 44 44 43 42 41 41 39 38 38 37 36 34 32 33 34 34 33 33 33 34 34 34 34 34 35
39 40 42 44 45 46 46 46 46 46 46 46 46 46 46 46 47 47 47 45 45 44 43 43 42 41 40 40 38 37 37 34 34 35 36 35 35 35 35 36 35 35 36 36
37 39 41 43 44 45 45 46 46 46 46 46 47 47 47 47 47 47 46 46 46 45 44 44 43 43 42 41 40 40 38 36 36 36 37 36 36 36 37 37 37 37 37 38
37 38 39 40 41 43 44 45 45 45 45 46 46 47 47 48 48 48 48 47 47 46 46 45 44 43 42 41 40 39 39 39 38 38 38 38 38 38 38 39 39 39 39 39
Wind_Direction
201 200 196 193 190 177 173 181 207 226 301 312 324 340 350 360 7 9 13 21 25 26 29 31 32 34 35 36 37 37 36 36 37 37 37 38 40 43 50 44 35 24 341 255
206 202 200 201 199 191 198 203 215 218 261 280 299 316 332 347 356 358 3 12 20 21 24 26 29 32 33 34 35 35 34 34 34 34 34 35 37 40 45 46 36 27 12 312
211 202 202 206 206 208 209 208 220 230 239 251 267 288 304 324 341 348 354 2 11 16 17 22 28 31 30 30 32 32 32 32 33 30 31 31 31 33 33 29 25 24 18 0
214 207 206 209 212 212 210 213 224 229 236 243 259 267 284 305 321 336 343 350 356 8 11 15 25 29 28 27 28 29 30 30 32 30 29 28 28 27 26 24 24 24 21 11
217 214 213 212 212 216 214 214 224 227 232 240 251 259 269 289 305 324 329 337 346 359 1 5 17 24 26 25 25 26 26 26 28 28 27 26 26 24 22 20 21 21 21 22
222 220 220 218 214 215 219 222 228 231 236 241 244 251 264 282 297 310 313 320 330 341 349 356 3 11 19 21 21 22 22 23 24 26 25 26 24 23 21 17 14 9 8 6
224 223 223 223 220 220 224 227 230 231 236 237 238 247 258 275 281 298 306 311 321 330 333 342 350 356 2 8 11 15 18 21 21 22 22 22 21 21 21 19 16 11 4 357
228 225 223 223 223 223 225 229 232 234 233 231 238 247 258 266 276 285 293 302 313 318 321 331 335 340 347 351 357 5 12 16 17 19 20 20 20 21 21 18 15 11 6 1
231 227 221 221 220 224 225 227 232 236 234 236 237 245 253 259 272 277 287 297 303 303 307 319 326 331 335 339 345 352 1 7 10 12 13 14 16 15 12 12 10 7 2 355
232 230 222 219 219 221 225 225 230 234 237 239 238 242 253 257 262 271 282 291 295 299 298 310 315 321 324 328 336 339 352 357 0 2 4 6 8 7 4 359 358 358 356 352
228 230 221 216 217 218 224 227 230 235 237 239 240 241 246 251 255 267 279 287 291 292 291 304 307 304 314 321 326 335 340 344 348 352 354 356 357 356 355 355 350 347 344 341
227 228 224 218 217 218 225 229 230 232 233 236 240 240 242 250 256 265 272 278 283 282 286 295 299 299 298 305 315 321 325 330 335 340 342 343 346 346 344 343 342 340 339 337
227 228 227 221 217 219 222 225 230 232 233 235 240 241 241 245 252 257 265 271 275 280 284 290 291 292 292 293 299 308 312 318 324 329 332 332 333 333 333 332 333 335 336 336
230 229 229 227 221 221 223 224 227 232 234 235 238 241 240 243 249 257 261 265 270 274 280 284 288 289 292 288 292 297 302 308 314 319 322 323 323 323 322 322 324 325 328 330
231 232 231 231 228 226 226 226 228 233 236 237 238 239 238 240 248 255 258 260 265 269 273 279 281 283 288 290 288 297 299 302 306 308 310 312 313 315 317 315 316 316 320 324
232 233 232 232 231 230 230 229 230 233 235 237 237 238 238 241 245 250 256 260 263 266 272 277 281 286 287 288 292 294 293 296 298 299 301 303 305 306 307 307 310 313 316 317
232 234 235 234 232 232 232 231 231 231 231 235 237 238 237 241 244 249 253 257 262 268 272 276 281 284 287 287 290 289 292 297 296 296 295 296 299 302 303 304 305 310 314 319
233 235 238 237 235 234 233 232 231 231 231 233 237 238 238 241 245 249 253 255 258 262 268 273 277 280 282 283 286 287 287 290 291 289 288 290 293 296 299 300 302 304 307 312
234 236 238 239 239 238 235 234 233 234 233 233 236 237 238 241 245 246 250 255 259 262 266 270 274 277 277 280 282 281 283 285 286 287 288 289 290 291 295 299 302 302 301 304
236 238 238 238 239 239 236 236 236 236 236 235 237 238 239 241 245 247 251 254 258 262 266 268 271 274 276 278 279 279 281 282 283 282 283 284 286 288 292 295 295 297 298 301
237 239 240 240 240 240 239 238 238 238 238 237 238 240 240 241 245 249 252 253 257 261 265 267 269 271 273 275 277 278 280 280 280 280 281 281 283 285 287 291 293 295 296 297
239 240 241 242 242 241 240 241 240 240 239 239 240 241 242 243 244 247 250 253 256 260 263 265 266 269 271 273 275 275 275 277 278 278 280 280 282 285 287 290 292 293 294 294
241 241 242 243 244 244 243 242 242 242 240 240 240 241 242 244 245 246 249 251 254 257 258 261 264 266 269 271 272 272 272 273 275 277 278 278 281 284 286 288 288 290 292 294
244 243 244 244 245 245 245 244 243 242 241 241 241 242 242 244 246 248 249 251 253 255 256 258 261 265 268 270 270 271 271 272 274 277 280 280 280 281 283 286 286 288 291 292
243 244 246 246 246 246 246 245 245 244 243 242 241 242 243 244 245 246 248 249 251 253 256 257 260 263 266 269 270 270 271 273 274 275 277 278 279 281 283 287 287 288 289 290
243 245 246 246 246 247 247 246 246 244 243 242 242 242 243 245 245 246 247 249 252 254 255 258 260 263 265 267 268 269 271 273 273 275 277 278 280 282 283 285 287 288 288 289
Height
5937 5940 5942 5943 5944 5945 5945 5946 5947 5947 5947 5947 5947 5947 5946 5944 5943 5942 5941 5938 5936 5934 5931 5929 5927 5924 5922 5920 5918 5915 5913 5910 5908 5906 5904 5902 5900 5899 5898 5897 5897 5896 5896 5896
5935 5937 5940 5941 5942 5943 5944 5945 5946 5946 5946 5946 5947 5946 5945 5944 5943 5943 5941 5939 5937 5935 5933 5931 5929 5926 5924 5921 5919 5917 5914 5912 5909 5907 5905 5903 5901 5899 5898 5897 5896 5896 5895 5895
5931 5935 5936 5937 5938 5940 5942 5943 5944 5945 5944 5945 5945 5945 5944 5944 5943 5942 5941 5940 5938 5936 5934 5932 5930 5927 5925 5923 5920 5918 5915 5913 5910 5908 5906 5904 5902 5900 5899 5897 5896 5895 5894 5894
5927 5930 5932 5933 5935 5937 5939 5941 5942 5943 5943 5943 5944 5943 5943 5942 5942 5942 5941 5940 5939 5937 5935 5933 5930 5928 5926 5923 5921 5919 5916 5914 5911 5909 5906 5904 5902 5901 5899 5898 5896 5895 5894 5893
5923 5925 5927 5929 5932 5934 5936 5938 5939 5940 5940 5941 5942 5942 5942 5941 5940 5940 5940 5940 5938 5937 5935 5933 5931 5929 5926 5924 5922 5920 5917 5915 5912 5910 5907 5905 5903 5901 5899 5898 5897 5895 5894 5893
5919 5921 5923 5926 5928 5931 5932 5934 5936 5936 5937 5938 5939 5939 5939 5938 5938 5938 5938 5938 5937 5936 5935 5933 5931 5929 5927 5925 5923 5921 5918 5916 5913 5911 5908 5906 5904 5902 5900 5898 5897 5896 5895 5893
5913 5916 5919 5922 5924 5927 5929 5931 5932 5933 5934 5935 5936 5936 5937 5936 5936 5936 5936 5936 5936 5935 5934 5933 5931 5929 5927 5925 5923 5921 5919 5916 5914 5911 5909 5906 5904 5902 5900 5899 5897 5895 5894 5893
5906 5910 5914 5917 5919 5922 5924 5926 5928 5929 5930 5931 5932 5932 5934 5933 5933 5933 5933 5933 5933 5932 5932 5931 5930 5928 5926 5925 5923 5921 5919 5916 5914 5911 5909 5907 5904 5902 5900 5899 5897 5895 5894 5892
5900 5905 5909 5911 5914 5916 5918 5921 5923 5925 5925 5926 5927 5928 5929 5929 5930 5930 5930 5930 5930 5930 5929 5928 5928 5926 5925 5924 5922 5920 5918 5916 5914 5912 5909 5907 5904 5902 5900 5899 5897 5895 5893 5891
5893 5898 5902 5906 5908 5910 5914 5916 5918 5919 5920 5921 5923 5924 5925 5925 5926 5926 5927 5927 5927 5927 5926 5926 5925 5925 5923 5922 5921 5919 5917 5915 5913 5911 5909 5907 5904 5902 5900 5898 5896 5894 5892 5890
5885 5890 5896 5899 5902 5905 5908 5910 5912 5914 5916 5917 5918 5921 5921 5921 5921 5922 5922 5923 5923 5923 5923 5922 5923 5923 5922 5920 5919 5917 5916 5914 5913 5911 5908 5906 5904 5902 5899 5897 5895 5893 5891 5889
5879 5883 5887 5892 5896 5899 5902 5904 5906 5908 5910 5912 5913 5917 5917 5917 5917 5917 5918 5919 5920 5920 5920 5920 5920 5919 5918 5917 5916 5915 5914 5912 5911 5909 5907 5905 5903 5900 5898 5896 5894 5892 5889 5887
5873 5876 5881 5885 5891 5893 5895 5897 5900 5902 5904 5906 5907 5912 5912 5912 5913 5914 5914 5915 5916 5916 5916 5916 5916 5916 5915 5914 5913 5912 5911 5910 5909 5907 5905 5903 5901 5899 5896 5894 5892 5890 5887 5885
5866 5869 5873 5878 5882 5885 5888 5891 5894 5896 5897 5899 5901 5904 5906 5907 5908 5909 5910 5911 5911 5911 5912 5911 5911 5912 5911 5910 5910 5909 5908 5906 5905 5904 5902 5900 5898 5896 5893 5891 5889 5886 5884 5882
5858 5861 5865 5870 5874 5877 5880 5884 5887 5889 5890 5893 5895 5897 5900 5902 5903 5904 5904 5905 5905 5906 5906 5907 5907 5906 5906 5906 5905 5904 5904 5902 5901 5900 5899 5897 5895 5892 5890 5887 5884 5882 5880 5878
5849 5852 5856 5861 5865 5868 5872 5876 5879 5881 5883 5885 5888 5890 5893 5895 5896 5898 5899 5900 5900 5900 5901 5901 5900 5900 5901 5900 5899 5899 5898 5897 5896 5896 5894 5893 5891 5889 5886 5883 5880 5878 5876 5874
5840 5843 5847 5851 5855 5858 5862 5868 5870 5873 5875 5878 5880 5884 5886 5888 5889 5891 5893 5894 5895 5895 5895 5895 5895 5896 5896 5895 5894 5893 5893 5892 5891 5890 5889 5888 5886 5883 5880 5877 5875 5874 5873 5870
5831 5834 5837 5841 5847 5848 5856 5859 5861 5864 5867 5870 5873 5875 5878 5880 5882 5884 5886 5887 5889 5889 5890 5890 5890 5890 5889 5889 5888 5887 5886 5887 5886 5885 5883 5881 5880 5878 5874 5872 5871 5870 5868 5865
5822 5825 5828 5831 5834 5839 5846 5850 5852 5855 5858 5862 5864 5867 5869 5872 5874 5876 5878 5879 5881 5882 5883 5883 5883 5882 5882 5882 5881 5881 5880 5879 5879 5878 5876 5874 5873 5871 5869 5867 5866 5864 5861 5859
5811 5814 5817 5820 5823 5827 5836 5840 5842 5846 5848 5853 5855 5858 5861 5863 5865 5868 5870 5871 5873 5874 5874 5875 5875 5875 5875 5874 5873 5872 5872 5872 5872 5871 5869 5868 5867 5864 5862 5860 5859 5857 5855 5853
5800 5803 5805 5809 5811 5816 5824 5829 5832 5836 5840 5843 5845 5848 5851 5854 5856 5859 5861 5862 5864 5865 5866 5866 5867 5867 5867 5866 5865 5864 5864 5864 5864 5862 5861 5860 5858 5856 5854 5852 5851 5849 5847 5845
5790 5792 5795 5798 5801 5808 5813 5817 5821 5824 5828 5832 5835 5838 5841 5843 5846 5848 5850 5852 5854 5855 5856 5856 5857 5857 5857 5857 5857 5856 5855 5855 5855 5853 5852 5850 5849 5848 5846 5844 5843 5841 5839 5837
5779 5782 5784 5788 5792 5797 5801 5804 5808 5812 5817 5820 5824 5827 5830 5833 5834 5837 5839 5841 5843 5844 5844 5846 5847 5847 5847 5848 5848 5847 5846 5845 5845 5844 5842 5840 5839 5838 5837 5835 5833 5832 5830 5828
5769 5771 5773 5777 5781 5784 5788 5792 5796 5800 5804 5808 5811 5814 5817 5820 5822 5825 5827 5829 5831 5832 5833 5834 5835 5835 5836 5837 5837 5836 5836 5835 5835 5834 5832 5830 5830 5828 5826 5824 5823 5822 5820 5818
5759 5761 5763 5766 5770 5773 5776 5780 5784 5788 5792 5795 5798 5801 5804 5808 5810 5812 5814 5816 5818 5820 5822 5823 5824 5825 5826 5825 5825 5826 5826 5825 5825 5824 5823 5821 5820 5819 5817 5815 5814 5812 5810 5808
5749 5751 5753 5756 5760 5762 5765 5768 5772 5775 5779 5782 5785 5788 5791 5794 5797 5799 5801 5803 5806 5808 5810 5811 5812 5814 5815 5815 5815 5816 5815 5814 5813 5813 5812 5811 5810 5809 5807 5805 5804 5801 5799 5797